Regional Weather Roundup
Issued by NWS

Home | Current Version | Previous Version | Graphics & Text | Print | Product List | Glossary On
Versions: 1 2 3 4 5 6 7 8 9 10 11 12 13 14 15 16 17 18 19 20 21 22 23 24 25 26 27 28 29 30 31 32 33 34 35 36 37 38 39 40 41 42 43 44 45 46 47 48 49 50
607
ASUS45 KCYS 182210
RWRWY

WYOMING REGIONAL WEATHER ROUNDUP
NATIONAL WEATHER SERVICE CHEYENNE WY
300 PM MST SAT FEB 18 2017

NOTE:  "FAIR" INDICATES FEW OR NO CLOUDS BELOW 12,000 FEET
WITH NO SIGNIFICANT WEATHER AND/OR OBSTRUCTIONS TO VISIBILITY.

WYZ001-182300-
YELLOWSTONE NATIONAL PARK

CITY           SKY/WX    TMP DP  RH WIND       PRES   REMARKS
LK YELLOWSTONE   N/A     33  32  96 VRB5      29.64F WCI  29
W YELLOWSTONE  NOT AVBL

$$
WYZ002>013-054>058-071-098>099-182300-
NORTHERN WYOMING

CITY           SKY/WX    TMP DP  RH WIND       PRES   REMARKS
JACKSON        CLOUDY    37  34  87 SW10      29.64S WCI  30
CODY           FAIR      49  31  49 SE13      29.57S
GREYBULL       FAIR      51  34  52 CALM      29.56F
WORLAND        FAIR      45  37  73 CALM      29.55S
SHERIDAN       FAIR      51  32  48 CALM      29.56R
BUFFALO        FAIR      56  31  38 VRB7      29.56F
GILLETTE       FAIR      62  28  27 SW17G30   29.56S
HULETT         FAIR      61  30  31 W15       29.59S
NEWCASTLE      FAIR      63  28  27 SW18G24   29.62F

$$
WYZ014>020-022>026-101>103-182300-
CENTRAL WYOMING

CITY           SKY/WX    TMP DP  RH WIND       PRES   REMARKS
BIG PINEY      CLOUDY    35  32  88 S9        29.70S WCI  28
PINEDALE       CLOUDY    37  32  81 E6        29.71S WCI  33
DUBOIS         CLOUDY    39  28  65 NW9       29.61F WCI  33
LANDER         FAIR      45  32  60 NW6       29.59S
RIVERTON       FAIR      44  32  62 N7        29.59F
CASPER         FAIR      53  29  39 SW28G41   29.64S
DOUGLAS        FAIR      62  27  26 W12       29.64F

$$
WYZ021-027>030-104>119-182300-
SOUTHERN WYOMING

CITY           SKY/WX    TMP DP  RH WIND       PRES   REMARKS
EVANSTON       CLOUDY    38  28  67 E7        29.66F WCI  33
KEMMERER         N/A     37  32  81 E6        29.69S WCI  33
FORT BRIDGER   MOCLDY    37  32  84 CALM      29.71R
ROCK SPRINGS   CLOUDY    40  30  67 S16       29.69S WCI  31
DIXON            N/A     46  31  55 W13       29.78R
RAWLINS        CLOUDY    45  29  53 SW10      29.74R
SARATOGA       MOCLDY    50  25  37 SW12G20   29.73F
LARAMIE        PTSUNNY   52  21  29 SW14      29.70S
CHEYENNE       FAIR      59  20  22 S17       29.69S
TORRINGTON     FAIR      63  21  20 E14       29.61F
PINE BLUFFS    FAIR      61  19  20 S15G26    29.68S

$$




USA.gov is the U.S. government's official web portal to all federal, state and local government web resources and services.